Regional Weather Roundup
Issued by NWS

Home | Current Version | Previous Version | Graphics & Text | Print | Product List | Glossary On
Versions: 1 2 3 4 5 6 7 8 9 10 11 12 13 14 15 16 17 18 19 20 21 22 23 24 25 26 27 28 29 30 31 32 33 34 35 36 37 38 39 40 41 42 43 44 45 46 47 48 49 50
000
ASUS43 KMKX 251621
RWRWI

WISCONSIN REGIONAL WEATHER ROUNDUP
NATIONAL WEATHER SERVICE MILWAUKEE/SULLIVAN WI
1100 AM CDT SAT MAR 25 2017

NOTE: "FAIR" INDICATES FEW OR NO CLOUDS BELOW 12,000 FEET WITH NO
SIGNIFICANT WEATHER AND/OR OBSTRUCTIONS TO VISIBILITY.

WIZ001-002-006>008-014>016-023>028-251700-
NORTHWEST WISCONSIN

CITY           SKY/WX    TMP DP  RH WIND       PRES   REMARKS
SUPERIOR ARPT  CLOUDY    35  31  86 E18G24    30.29S WCI  24
ASHLAND        CLOUDY    36  30  79 NE14      30.29S WCI  27
HAYWARD        CLOUDY    38  28  67 E12       30.23S WCI  30
SIREN          CLOUDY    37  29  73 E7        30.22F WCI  32
CUMBERLAND     CLOUDY    34  30  86 E10       30.21R WCI  26
RICE LAKE      CLOUDY    36  31  82 CALM      30.22S
CHETEK         CLOUDY    36  31  83 E3        30.21S
LADYSMITH      CLOUDY    37  31  79 E12       30.23S WCI  29
EAU CLAIRE     CLOUDY    38  31  76 E18G26    30.18F WCI  28
MENOMONIE      CLOUDY    38  32  78 NE13      30.19F WCI  30
NEW RICHMOND   CLOUDY    37  31  79 NE10G17   30.20S WCI  29
OSCEOLA        CLOUDY    37  31  79 E12       30.24R WCI  29
$$

WIZ003>005-009-010-017-018-251700-
NORTH CENTRAL WISCONSIN

CITY           SKY/WX    TMP DP  RH WIND       PRES   REMARKS
MANITOWISH WTR CLOUDY    33  32  95 E7        30.24S WCI  27
ARBOR VITAE    CLOUDY    37  32  84 E7        30.22F WCI  31
WOODRUFF       CLOUDY    37  32  84 E7        30.22F WCI  31
RHINELANDER    CLOUDY    35  31  85 E13       30.23F WCI  26
EAGLE RIVER    CLOUDY    33  31  89 E9        30.24S WCI  26
LAND O LAKES   CLOUDY    34  31  90 E8        30.27S WCI  27
PHILLIPS       CLOUDY    34  30  86 E10G18    30.21F WCI  26
TOMAHAWK       CLOUDY    34  29  82 E8G17     30.23S WCI  27
MEDFORD        CLOUDY    34  31  88 E17       30.18F WCI  24
MERRILL        CLOUDY    36  32  85 E12G17    30.22F WCI  27
$$

WIZ029-030-035-036-043>047-251700-
CENTRAL WISCONSIN

CITY           SKY/WX    TMP DP  RH WIND       PRES   REMARKS
WAUSAU         CLOUDY    36  32  85 E15G23    30.20S WCI  27
MOSINEE        NOT AVBL
MARSHFIELD     CLOUDY    36  31  82 E18G25    30.16F WCI  26
STEVENS POINT  CLOUDY    34  32  92 NE17G24   30.19F WCI  24
WAUPACA        CLOUDY    39  34  82 NE13G18   30.20F WCI  31
WAUTOMA        CLOUDY    36  34  92 E15G28    30.18S WCI  27
WISC RAPIDS    CLOUDY    37  33  85 E14G26    30.18F WCI  28
CAMP DOUGLAS   CLOUDY    37  34  87 E10G22    30.15R WCI  30
$$

WIZ011>013-019>022-031-037>040-048>050-251700-
NORTHEAST WISCONSIN

CITY           SKY/WX    TMP DP  RH WIND       PRES   REMARKS
ANTIGO         CLOUDY    33  32  94 E17G23    30.22S WCI  22
SHAWANO        CLOUDY    38  34  85 E16G23    30.25S WCI  29
OCONTO         CLOUDY    36  32  87 NE10G17   30.27S WCI  28
STURGEON BAY   CLOUDY    37  32  82 NE16G25   30.26F WCI  28
GREEN BAY      CLOUDY    38  36  92 NE18      30.23F WCI  28
MANITOWOC      CLOUDY    38  35  89 NE9       30.21S WCI  31
APPLETON       CLOUDY    36  36 100 NE14G22   30.18F WCI  27
CLINTONVILLE   CLOUDY    36  32  87 E17G25    30.23S WCI  25
OSHKOSH        CLOUDY    37  34  89 NE16      30.17S WCI  28
$$

WIZ032>034-041-042-053>061-251700-
SOUTHWEST WISCONSIN

CITY           SKY/WX    TMP DP  RH WIND       PRES   REMARKS
LA CROSSE      CLOUDY    40  34  79 NE10      30.13S WCI  33
SPARTA         CLOUDY    37  34  90 E18G26    30.15R WCI  27
VIROQUA        CLOUDY    36  36  99 E18       30.08S WCI  26
BOSCOBEL       CLOUDY    40  36  86 NE9G25    30.07F WCI  34
PRAIRIE DU CHI CLOUDY    39  35  87 N6G16     30.05F WCI  35
PLATTEVILLE    CLOUDY    39  39 100 NE25G31   30.02S WCI  27
$$

WIZ056-057-062-063-064-067-068-251700-
SOUTH CENTRAL WISCONSIN

CITY           SKY/WX    TMP DP  RH WIND       PRES   REMARKS
REEDSBURG      CLOUDY    36  36 100 NE15      30.12S WCI  26
BARABOO/DELLS  CLOUDY    36  35  96 NE15G21   30.11F FOG     WCI  26
LONE ROCK      CLOUDY    39  35  86 E16       30.09F FOG     WCI  30
MINERAL POINT  CLOUDY    37  37 100 NE17G28   30.03S FOG     WCI  28
MADISON        CLOUDY    38  36  92 E17G25    30.10S WCI  28
MIDDLETON      CLOUDY    39  37  94 E16       30.10S WCI  30
WATERTOWN      CLOUDY    38  38 100 NE14G22   30.10F WCI  29
MONROE         RAIN      37  37 100 NE22G31   30.01F WCI  27
JANESVILLE     RAIN      41  41 100 E18G26    30.06S
$$

WIZ051-052-058>065-066-070>072-251700-
SOUTHEAST WISCONSIN

CITY           SKY/WX    TMP DP  RH WIND       PRES   REMARKS
MILWAUKEE      DRIZZLE   39  36  89 NE14      30.13S WCI  31
WAUKESHA       NOT AVBL
MILWAUKEE/TIMM CLOUDY    37  34  87 NE12G17   30.14F WCI  30
RACINE         CLOUDY    39  36  89 NE16      30.13S WCI  30
KENOSHA        CLOUDY    39  37  92 NE21G28   30.09F WCI  29
FOND DU LAC    CLOUDY    38  33  82 NE15      30.17S WCI  29
SHEBOYGAN      CLOUDY    37  34  89 NE18      30.18S WCI  27
WEST BEND      CLOUDY    36  36 100 NE14      30.14F WCI  27
JUNEAU         CLOUDY    37  35  96 NE12G17   30.13F WCI  29
$$

LSZ147-162-251700-
LAKE SUPERIOR

STATION/POSITION TIME  TEMP    WIND        PRES    WAVE
                       AIR SEA DIR/SP/G            HT/PER
                 (UTC) (F)     (DEG/KT/KT) (MB)    (FT/S)
DEVILS ISLAND    1600   33      70/ 20/ 23 1027.9R
PORT WING        1540   35      40/ 13/ 16 1026.1S
SAXON HARBOR     1530   34      50/ 12/ 14 1025.4S
$$

LMZ867-665-643>646-251700-
LAKE MICHIGAN

STATION/POSITION TIME  TEMP    WIND        PRES    WAVE
                       AIR SEA DIR/SP/G            HT/PER
                 (UTC) (F)     (DEG/KT/KT) (MB)    (FT/S)
CHAMBERS ISLAND  1540   35      50/ 14/ 19 1025.4R
NORTHPORT PIER   1540   34      70/ 15/ 19 1025.7F
SISTER BAY       1536   37      70/ 13/ 20   N/A
KEWAUNEE LAKESHO 1554   37      50/ 14/ 20 1023.0F
SHEBOYGAN LAKESH 1600   37      40/ 17/ 20 1022.7S
PORT WASHINGTON  1530   38      40/ 14/ 17 1022.4R
MILWAUKEE LAKESH 1600   37      30/ 16/ 17   N/A
KENOSHA   LAKESH 1600   38      40/ 16/ 19 1019.6
$$

TC  - TEMPERATURE IN CELSIUS
VSB - VISIBILITY IN STATUTE MILES
WCI - WIND CHILL INDEX
HX  - HEAT INDEX




USA.gov is the U.S. government's official web portal to all federal, state and local government web resources and services.